Showing default

HAWK-9C, 59448

Orbit data source: Space-Track

HAWK-9C, 59448 is a payload satellite owned by HawkEye 360 (US) in LEO that was launched on Sun, 07 Apr 2024 UTC via an FALCON 9 launch vehicle from the Air Force Eastern Test Range (AFETR). Payload-class satellites include a variety of spacecraft equipped with specific instruments for various scientific and technological missions. These include communications satellites like Starlink; space stations such as the ISS; scientific satellites like the Hubble; Earth observation satellites from companies like Planet Labs, Umbra, and HawkEye 360; GPS; miniature CubeSats for education and research; and military/defense satellites.

Loading next visibility...
Identifier
59448, 2024-066G
Orbit
LEO
Last TLE update
16 hours ago
Origin
Manufacturer
UTIAS-SFL
Mission
Operational spacecraft
Bus & Motor
HAWK2G, Unknown motor
Mass
31 kg wet, 30 kg dry
Launch date (UTC)
2024-04-07 (1 year ago)
Launch vehicle
FALCON 9
Launch site
Air Force Eastern Test Range (AFETR)
Object type
Payload
Rocket body
Debris
Shape & HBR
Unknown
Radar Cross Section
Medium (>0.1 m² and <1 m²)

Expand to show TLE details & history

TLE from 16 hours ago
0 HAWK-9C
1 59448U 24066G   25128.67919460  .00002895  00000-0  26832-3 0  9996
2 59448  45.5966 204.0853 0003289   3.8598 356.2307 14.96848084 59174
Epoch: 2025-05-08T16:18Z
Definitive object data (Epoch: 2025-05-08T16:18:02.413Z)
Latitude
-0.00002°
Longitude
92.82899°
Altitude
574.425 km
Speed
7.576 km/s
True Right ascension
13h 36m 20s
True Declination
0° 00' 00"
Sunlit
Object was in full shadow at TLE epoch
Visualization TLE readout
Latitude
7.93689°
Longitude
97.18349°
Altitude
573.731 km
Speed
7.577 km/s
Apparent Right ascension
10h 53m 26s
Apparent Declination
-35° 23' 12"
Sunlit
Object is in full shadow
Visualization observer readout
Local Sidereal Time
16:31:13
Azimuth
238.626° WSW
Elevation
-18.122°
Doppler factor
1
Orbital elements
Apogee altitude
580.419 km
Perigee altitude
575.843 km
Semi-major axis
6,956.268 km
Eccentricity
0.0003289
Inclination
45.5966°
RAAN
204.0853°
Arg. of periapsis
3.8598°
True anomaly
356.22822°
Mean anomaly
356.2307°
Eccentric anomaly
356.22946°
Mean motion
3.74092 °/min
BSTAR
0.00026832
Orbital period
96.23 mins
Loading maneuver chart data...
Loading SW <> Apogee altitude chart data...
Loading historical data...
Loading historical data...
Loading historical data...
Loading historical data...
Loading historical data...
Loading historical data...
Loading historical data...

HAWK-9C Visibility forecast

Observer location: undefined°, undefined°

Span
Click to sort rows by Start time (UTC) header in descending order
Start Az.
Max El. time (UTC)
Max El. Az.
Max El.
End time (UTC)
End Az.
7 mins2025-05-09 08:32:03.977Z234.205° WSW2025-05-09 08:35:03.977Z184.411° SSW43.251°2025-05-09 08:39:03.977Z68.165° E
6 mins2025-05-09 10:14:03.977Z289.465° WNW2025-05-09 10:16:03.977Z336.528° NNW33.957°2025-05-09 10:20:03.977Z60.401° ENE
6 mins2025-05-09 11:55:03.977Z305.853° NW2025-05-09 11:58:03.977Z20.089° NNE33.405°2025-05-09 12:01:03.977Z76.505° E
7 mins2025-05-09 13:36:03.977Z292.154° WNW2025-05-09 13:39:03.977Z170.463° S44.327°2025-05-09 13:43:03.977Z121.045° SE
5 mins2025-05-10 06:56:03.977Z172.151° S2025-05-10 06:58:03.977Z131.012° SE21.603°2025-05-10 07:01:03.977Z86.816° E
|